{"data":{"norad_id":62210,"intl_designator":"2024-229U","name":"STARLINK-32670","alt_names":[],"object_type":"PAYLOAD","status":"ACTIVE","operator":null,"country":"US","launch_date":"2024-12-04","launch_site_code":"AFETR","launch_vehicle":null,"mission":null,"orbit_class":"UNKNOWN","rcs_meters":null,"size_class":null,"mass_kg":null,"dimensions":null,"purposes":["comms"],"wikipedia_slug":null,"has_3d_model":false,"image_url":null,"decayed_at":null,"tle_current":{"epoch":"2026-09-21T15:45:59.323968Z","epoch_age_seconds":78265,"freshness":"FRESH","line1":"1 62210U 24229U   26264.65693662  .00013924  00000+0  51431-3 0  9998","line2":"2 62210  43.0028 243.8547 0002021 270.8466  89.2154 15.27595673100539","mean_motion":15.27595673,"eccentricity":0.0002021,"inclination_deg":43.0028,"raan_deg":243.8547,"arg_perigee_deg":270.8466,"mean_anomaly_deg":89.2154,"bstar":0.00051431,"rev_number":10053,"period_min":94.265781544931,"perigee_km":481.61552961516,"apogee_km":484.38880206599,"semimajor_km":6861.1391658406,"source":"CELESTRAK","updated_at":"2026-09-22T09:00:49.542794Z"}}}